Flag for Germany Weather for the Past 2 Weeks in Leutkirch im Allgäu, Baden-Württemberg, Germany

Now
36 °F

Overcast.


Feels Like: 25 °F
Forecast: 28 / 37 °F
Wind: 20 mph from West

Location: Friedrichshafen Airport

Current Time: Feb 10, 2016 at 6:23:25 AM

Latest Report: Feb 10, 2016 at 5:20 AM


Visibility: N/A

Pressure: 29.45 "Hg (27.15 "Hg at 656m altitude)

Humidity: 75%

Dew point: 28 °F

Location of Leutkirch im AllgäuLocation

Historic Weather in Leutkirch im Allgäu — Graph

°F

Leutkirch im Allgäu Temperature Yesterday

Maximum temperature yesterday: 52 °F (at 5:20 PM)
Minimum temperature yesterday: 39 °F (at 8:20 PM)
Average temperature yesterday: 45 °F

High & Low Weather Summary for the Past Weeks

 TemperatureHumidityPressure
High55 °F (Feb 1, 1:50 PM)93% (Jan 26, 4:20 AM)30.48 "Hg (Jan 26, 4:20 AM)
Low28 °F (Jan 26, 4:20 AM)47% (Feb 7, 10:50 AM)29.30 "Hg (Feb 9, 5:20 PM)
Average42 °F77%30.12 "Hg
* Reported Jan 26 4:20 AM — Feb 10 4:50 AM, Leutkirch im Allgäu, Weather by CustomWeather, © 2016

Note: Actual official high and low records may vary slightly from our data, if they occured in-between our weather recording intervals... More about our weather records

Advertising

Leutkirch im Allgäu Weather History for the Previous 24 Hours

 ConditionsComfort  
Time TempWeatherWind HumidityBarometerVisibility
4:50 AM
Wed, Feb 10
36 °FMostly cloudy.17 mph75%29.45 "HgN/A
4:20 AM37 °FLight rain. Mostly cloudy.21 mph65%29.45 "HgN/A
3:50 AM37 °FDrizzle. Mostly cloudy.18 mph70%29.45 "HgN/A
3:20 AM37 °FMostly cloudy.15 mph65%29.45 "HgN/A
2:50 AM37 °FOvercast.15 mph65%29.45 "HgN/A
2:20 AM37 °FOvercast.14 mph70%29.45 "HgN/A
1:20 AM37 °FOvercast.17 mph65%29.45 "HgN/A
12:50 AM39 °FMostly cloudy.16 mph56%29.45 "HgN/A
12:20 AM37 °FMostly cloudy.12 mph65%29.45 "HgN/A
11:50 PM
Tue, Feb 9
39 °FPassing clouds.15 mph61%29.42 "HgN/A
11:20 PM39 °FSprinkles. Mostly cloudy.16 mph65%29.42 "HgN/A
10:20 PM43 °FMostly cloudy.14 mph66%29.39 "HgN/A
9:50 PM43 °FOvercast.15 mph66%29.36 "HgN/A
9:20 PM43 °FSprinkles. Mostly cloudy.17 mph71%29.39 "HgN/A
8:50 PM43 °FLight rain. Mostly cloudy.20 mph71%29.36 "HgN/A
8:20 PM39 °FSprinkles. Mostly cloudy.17 mph81%29.39 "HgN/A
7:50 PM41 °FSprinkles. Overcast.20 mph76%29.36 "HgN/A
7:20 PM50 °FSprinkles. Mostly cloudy.23 mph54%29.30 "HgN/A
6:50 PM52 °FSprinkles. Mostly cloudy.25 mph54%29.30 "HgN/A
6:20 PM50 °FMostly cloudy.9 mph54%29.30 "HgN/A
5:50 PM48 °FMostly cloudy.12 mph62%29.30 "HgN/A
5:20 PM52 °FLight rain. Mostly cloudy.20 mph50%29.30 "HgN/A
4:50 PM48 °FOvercast.6 mph66%29.33 "HgN/A
4:20 PM46 °FMore clouds than sun.5 mph71%29.33 "HgN/A
3:50 PM45 °FMore clouds than sun.3 mph81%29.33 "HgN/A
3:20 PM46 °FMore clouds than sun.3 mph71%29.33 "HgN/A
2:50 PM46 °FSprinkles. Cloudy.No wind76%29.39 "HgN/A
2:20 PM46 °FCloudy.2 mph71%29.42 "HgN/A
1:50 PM46 °FMore clouds than sun.2 mph71%29.42 "HgN/A
1:20 PM46 °FBroken clouds.2 mph76%29.45 "HgN/A
12:50 PM48 °FBroken clouds.3 mph71%29.47 "HgN/A
12:20 PM46 °FBroken clouds.3 mph76%29.47 "HgN/A
10:50 AM43 °FLight rain. Mostly cloudy.5 mph87%29.59 "HgN/A
10:20 AM45 °FSunny.2 mph76%29.62 "Hg10 mi
9:50 AM45 °FSunny.3 mph71%29.65 "Hg10 mi
8:50 AM45 °FSunny.3 mph71%29.65 "Hg10 mi
8:20 AM45 °FSunny.8 mph71%29.68 "Hg10 mi
7:50 AM45 °FSunny.8 mph71%29.68 "Hg10 mi
7:20 AM46 °FClear.8 mph66%29.71 "Hg10 mi
6:50 AM46 °FClear.6 mph66%29.71 "Hg10 mi
6:20 AM45 °FClear.2 mph71%29.74 "Hg10 mi
Weather by CustomWeather, © 2016

See weather overviewHow to use our weather pages